Regional Weather Roundup
Issued by NWS Grand Forks, ND

Home | Current Version | Previous Version | Graphics & Text | Print | Product List | Glossary On
Versions: 1 2 3 4 5 6 7 8 9 10 11 12 13 14 15 16 17 18 19 20 21 22 23 24 25 26 27 28 29 30 31 32 33 34 35 36 37 38 39 40 41 42 43 44 45 46 47 48 49 50
000
ASUS43 KFGF 200910
RWRFGF
PRAIRIE TO PINES  WEATHER ROUNDUP
NATIONAL WEATHER SERVICE EASTERN NORTH DAKOTA/GRAND FORKS ND
300 AM CST MON FEB 20 2017

 **SATELLITE DATA USED TO AUGMENT SKY COVER AT AUTOMATED STATIONS**
 *****  WEATHER ACROSS EASTERN NORTH DAKOTA  *****

CITY           SKY/WX    TMP DP  RH WIND       PRES   REMARKS
GRAND FORKS    FAIR      41  36  82 S12       29.56F HAZE
GRAND FRKS AFB FAIR      38  38  99 S7        29.57F FOG
DEVILS LAKE    LGT RAIN  36  36 100 CALM      29.56S VSB 1/4
FARGO          MOCLDY    53  48  83 SE22G30   29.58F
WAHPETON ARPT  FAIR      48  45  87 SE10      29.63R
$$

 ***** WEATHER ACROSS CENTRAL AND WESTERN NORTH DAKOTA  *****

CITY           SKY/WX    TMP DP  RH WIND       PRES   REMARKS
BISMARCK       CLOUDY    37  35  92 SW5       29.56F
MINOT          CLOUDY    34  33  96 SW3       29.59R FOG
JAMESTOWN      LGT RAIN  43  42  97 S10       29.54F FOG
MINOT AFB      CLOUDY    32  32  99 W6        29.57R
GARRISON         N/A     35  32  88 NW12      29.55S
WILLISTON      MOCLDY    33  32  96 W7        29.63S
DICKINSON      CLOUDY    37  34  89 W10       29.57R
HETTINGER      MOCLDY    38  33  82 NW8       29.59R
$$

 *****  OTHER AIRPORT OBSERVATIONS IN OUR AREA  *****

CITY           SKY/WX    TMP DP  RH WIND       PRES   REMARKS
WALHALLA       NOT AVBL
GRAFTON AIRPOR FAIR      36  36 100 SE3       29.60S FOG
VALLEY CITY AR CLOUDY    43  43 100 S9        29.57F
CANDO          NOT AVBL
CAVALIER APRT  CLOUDY    37  36  93 S3        29.58F
GWINNER        FAIR      52  48  87 SW10      29.57R
SHEYENNE NWR     N/A     48  46  92 SE8       29.95S
ROLLA          FOG       32  32 100 CALM      29.56R VSB 1/2
 ***** THE ABOVE OBSERVATIONS ARE NON NWS ARE NOT QUALITY
       CONTROLLED AND MAY MIS-REPORT RAIN FOR SNOW...
$$

  *****  WEATHER ACROSS NORTHERN MINNESOTA  *****

CITY           SKY/WX    TMP DP  RH WIND       PRES   REMARKS
FLAG ISLAND    FAIR      39  30  70 SE8       29.69F
WARROAD        FAIR      41  36  81 SE13      29.68F
ROSEAU         FAIR      41  36  81 SE10      29.65F
HALLOCK        FAIR      39  37  93 SE14      29.59S
THF RVR FALLS  FAIR      40  37  89 SE14      29.63F
BAUDETTE       FAIR      40  31  70 SE9       29.70F
WASKISH        FAIR      45  36  70 SE14G22   29.71F
CROOKSTON      FAIR      43  41  93 SE14      29.60F
GREENBUSH NDAW   N/A     39  36  87 SE13        N/A
$$
  *****  WEATHER ACROSS CENTRAL AND WEST MINNESOTA  *****

CITY           SKY/WX    TMP DP  RH WIND       PRES   REMARKS
FOSSTON        FAIR      45  41  87 SE12      29.64F
BEMIDJI        FAIR      39  33  79 SE13      29.71F
PARK RAPIDS    CLOUDY    45  39  79 SE14      29.70F
ELBOW LAKE     FAIR      50  47  91 E16       29.66F
WADENA         LGT RAIN  43  43 100 SE13      29.70F
DETROIT LAKES  FAIR      45  43  93 SE10      29.66F
MOORHEAD       MOCLDY    52  48  87 SE20G31   29.60F
FERGUS FALLS   CLOUDY    52  46  82 SE10G16   29.68F
MORRIS MN      FAIR      48  46  93 SE10      29.68S
STAPLES        MOCLDY    46  41  81 S7        29.75R
$$
  *****  WEATHER ELSEWHERE ACROSS MINNESOTA  *****

CITY           SKY/WX    TMP DP  RH WIND       PRES   REMARKS
DULUTH         FAIR      38  31  76 E16       29.90F
INTRNTL FALLS  FAIR      41  31  67 SE14      29.77F
ELY            FAIR      39  30  70 SE8       29.90F
CLOQUET        FAIR      36  30  80 E8        29.89F
WHEATON        FAIR      50  46  87 SE18      29.65F
BRAINERD       TSTM      43  37  79 SE9       29.79R
HIBBING        MOCLDY    39  31  72 SE13      29.84F
ALEXANDRIA     MOCLDY    49  46  90 SE13      29.71F
SAINT CLOUD    MOCLDY    49  43  80 SE8       29.77F
MINNEAPOLIS    MOCLDY    50  41  71 SE12      29.85F
$$

  *****  WEATHER ACROSS SOUTH DAKOTA  *****

CITY           SKY/WX    TMP DP  RH WIND       PRES   REMARKS
SIOUX FALLS    FAIR      54  52  93 S16G23    29.70R
BROOKINGS      FAIR      51  48  89 S13       29.69R
WATERTOWN      FAIR      47  46  97 S13       29.66R
HURON          CLOUDY    52  49  89 S13       29.61S
SISSETON         N/A     54  50  86 S22       29.63R
ABERDEEN       FAIR      51  46  83 S18       29.57S
MITCHELL       FAIR      52  50  93 S9        29.65R
PIERRE         FAIR      44  39  82 S3        29.53S
MOBRIDGE       FAIR      44  35  70 E5        29.50S
RAPID CITY     CLOUDY    48  37  65 N16       29.63R
$$

  *****  SOME WEATHER IN NEARBY STATES *****

CITY           SKY/WX    TMP DP  RH WIND       PRES   REMARKS
GLASGOW MT     FAIR      28  26  92 VRB3      29.65S
GREAT FALLS MT FAIR      29  23  78 SW12      29.69R WCI  19
CHEYENNE WY    FAIR      39  14  36 NW17G24   29.81S
SCOTTSBLUFF NE MOCLDY    47  29  49 W16G26    29.72S
OMAHA NE       CLOUDY    58  52  80 SE12      29.77F
DES MOINES IA  CLOUDY    59  48  67 SE8       29.88S
DAVENPORT IA   FAIR      51  47  86 SE10      30.02S
CHICAGO IL     CLOUDY    44  38  79 SE7       30.10F
EAU CLAIRE WI  FAIR      47  36  65 SE8       29.94F
LA CROSSE WI   FAIR      50  40  68 S7        29.97S
$$

  *****  SOME NATIONAL WEATHER *****

CITY           SKY/WX    TMP DP  RH WIND       PRES   REMARKS
LA GUARDIA NY  FAIR      48  32  53 NW14      30.04R
RALEIGH NC     FAIR      46  40  79 CALM      30.14R
ATLANTA GA     MOCLDY    50  45  83 NE3       30.12F
NEW ORLEANS LA MOCLDY    66  66 100 S7        30.03S
OKLAHOMA CITY  RAIN      56  54  93 CALM      29.85F
ALBUQUERQUE NM CLOUDY    42  33  70 W7        30.03R
SALT LAKE CITY FAIR      42  35  76 SE10      29.93S
LOS ANGELES CA LGT RAIN  54  52  93 SE7       30.18S
BOISE ID       CLOUDY    43  33  68 SE16      29.77F
SEATTLE WA     MOCLDY    41  36  82 CALM      29.60F
$$

*** WEATHER ACROSS MANITOBA...SASKATCHEWAN AND ONTARIO ***
                ***ONTARIO***

CITY           SKY/WX    TMP DP  RH WIND       PRES   REMARKS
GERALDTON      MOCLDY    25  21  86 E8        30.17F WCI  16
THUNDER BAY    MOCLDY    34  32  93 E12       30.12S
SIOUX LOOKOUT  CLOUDY    37  27  65 SE9       29.87F
TORONTO        CLEAR     34  28  80 N13       30.22R WCI  25
BIG TROUT LK   MOCLDY    23  21  93 SE13      30.06F WCI  11
PICKLE LAKE    NOT AVBL
DRYDEN         MOCLDY    39  28  65 SE15G22   29.82F
KENORA         MOCLDY    39  30  70 SE12      29.72F
$$
                *** MANITOBA***

CITY           SKY/WX    TMP DP  RH WIND       PRES   REMARKS
BRANDON        CLOUDY    32  32 100 CALM      29.58R
DAUPHIN        CLOUDY    30  28  93 NW7       29.60S WCI  23
ISLAND LAKE    FRZ RAIN  28  27  93 E6        29.85F WCI  22
PILOT MOUND      N/A     34  32  93 SW6         N/A
THE PAS        CLOUDY    27  21  80 E5        29.70F WCI  21
THOMPSON       CLOUDY    21  18  86 E7        29.85F WCI  13
WINNIPEG       CLOUDY    41  36  81 SE15      29.59F
LYNN LAKE      CLOUDY    18  18 100 E8        29.82F WCI   7
CHURCHILL      FLURRIES  12   9  85 E6        30.14S WCI   3
GILLAM         CLOUDY    19  18  93 E8        30.01F WCI   9
$$
                ***SASKATCHEWAN***

CITY           SKY/WX    TMP DP  RH WIND       PRES   REMARKS
ESTEVAN        CLOUDY    32  32 100 W16       29.60R FOG     WCI  21
KINDERSLEY     FOG       32  30  93 SW6       29.56R VSB 1
LLOYDMINSTER   FOG       32  32 100 W12       29.51R VSB 3/4 WCI  23
PRINCE ALBERT  FLURRIES  27  25  93 E10       29.58F WCI  17
REGINA         CLOUDY    32  30  93 S6        29.59S FOG
YORKTON        CLOUDY    30  28  93 CALM      29.60R FOG
N. BATTLEFORD  CLOUDY    34 N/A N/A S3        29.54S
LA RONGE       LGT SNOW  25  23  93 E9        29.63F VSB 1   WCI  15
SASKATOON      FOG       32  32 100 S7        29.56S VSB 1/4
SWIFT CURRENT  CLEAR     32  28  86 SW15G21   29.57R WCI  22
$$
NOTE: THESE ARE AUTOMATED STATIONS WITH LIMITED QUALITY CONTROL
      "FAIR" INDICATES FEW OR NO CLOUDS BELOW 12,000 FEET WITH NO
      SIGNIFICANT WEATHER AND/OR OBSTRUCTIONS TO VISIBILITY.
      SKY/WX - SKY CONDITION AND SIGNIFICANT WEATHER.
      TMP - AIR TEMPERATURE.    DP   - DEWPOINT TEMPERATURE.
      RH  - RELATIVE HUMIDITY.  PRES - PRESSURE.
      HX  - HEAT INDEX.         WCI  - WIND CHILL INDEX.
$




USA.gov is the U.S. government's official web portal to all federal, state and local government web resources and services.